[[{"header":{"parameterUnit":"m.s-1","parameterCategory":1,"la1":30.2991,"la2":30.254,"lo1":-89.0895,"lo2":-89.0444,"dy":0.0017,"dx":0.0017,"nx":28,"ny":28,"refTime":"2025-07-07T09:00:00:Z","depth":0,"parameterNumber":2,"parameterNumberName":"U-component_of_WINDS"},"data":[0,0,0,0,0,0,0,0,0,0,0,0,0,0,0,0,0,0,0,0,0,0,0,0,0,0,0,0,0,0,0,0,0,0,0,0,0,0,0,0,0,0,0,0,0,0,0,0,0,0,0,0,0,0,0,0,0,0,2.0015,2.0017,0,2.0222,2.0225,2.0227,2.0297,2.0296,2.0295,2.0294,2.0511,2.0517,2.0524,0,0,0,0,0,0,0,0,0,0,0,0,0,1.968,1.9686,2.0014,2.0017,2.0019,2.0222,2.0225,2.0228,2.0297,2.0296,2.0295,2.0294,2.0509,2.0516,2.0524,0,0,0,0,0,0,0,0,0,0,0,0,0,1.985,1.9688,2.0014,2.0078,2.0086,2.0221,2.0225,2.0228,2.0297,2.0296,2.0295,2.0294,2.0506,2.0516,2.0525,2.0612,0,0,2.0556,2.056,0,0,0,0,0,0,0,0,1.9841,1.9863,2.0066,2.0074,2.0083,2.0232,2.0186,2.0357,2.0298,2.0217,2.0294,2.0293,2.0419,2.0436,2.0478,2.0622,2.0632,2.0556,2.0562,2.0567,2.0569,0,0,0,0,0,0,0,1.9829,1.9854,2.0097,2.0069,2.008,2.0098,2.0121,2.0219,2.0323,2.0224,2.023,2.0253,2.0424,2.0469,2.0484,2.0635,2.0556,2.0565,2.0571,2.0575,2.0861,2.0862,0,0,0,0,0,0,1.9806,1.9844,2.009,2.0103,1.9956,2.0105,2.0131,2.0186,2.0322,2.0342,2.0254,2.0256,2.0452,2.0472,2.0492,2.0602,2.0567,2.0576,2.0581,2.0859,2.0861,2.0863,0,0,0,0,0,0,1.9798,1.9827,2.0082,1.9975,2.0009,2.0112,2.0174,2.0191,2.0235,2.0345,2.0364,2.0281,2.0452,2.0478,2.0581,2.0611,2.058,2.0589,2.0857,2.0859,2.0862,2.0823,0,0,0,0,0,0,1.9788,1.9824,1.9857,1.9975,2.0014,2.0167,2.0176,2.0196,2.0252,2.0256,2.0375,2.0393,2.0453,2.0566,2.0591,2.0624,2.0597,2.0855,2.0858,2.0861,2.0822,2.0824,2.0826,0,0,0,0,0,1.9776,1.9839,1.9859,1.9888,2.0058,2.0168,2.0191,2.0257,2.0254,2.0289,2.0359,2.039,2.0603,2.0576,2.0605,2.0641,2.0853,2.0857,2.0861,2.0822,2.0824,2.0825,0,0,0,0,0,0,1.9723,1.9856,1.9879,1.9981,2.0063,2.018,2.0226,2.0258,2.0343,2.0343,2.0423,2.0449,2.0547,2.0605,2.0572,2.0732,2.073,2.074,2.069,2.0693,2.0695,2.0679,2.0605,0,0,0,0,0,1.9723,1.9801,1.9913,1.9993,2.0032,2.0122,2.0172,2.0216,2.0305,2.034,2.0418,2.0503,2.0589,2.0645,2.073,2.0831,2.0858,2.087,2.0871,2.0872,2.0879,2.0937,2.0943,2.0875,2.0875,2.0875,0,0,1.9724,1.9806,1.9851,1.9984,2.0052,2.0132,2.015,2.0234,2.0294,2.0353,2.0455,2.0515,2.0616,2.0718,2.0767,2.0769,2.0904,2.0877,2.0877,2.0884,2.0941,2.0947,2.0953,2.0878,2.0877,2.0877,0,0,1.9767,1.9837,1.991,1.9978,2.0081,2.014,2.0158,2.027,2.0312,2.0415,2.0461,2.0534,2.0681,2.0751,2.0805,2.0873,2.0905,2.0899,2.0908,2.0962,2.0968,2.0973,2.0997,2.1004,2.0906,2.0906,2.0906,0,1.9755,1.9876,1.9945,2.0025,2.0083,2.0139,2.0214,2.0277,2.0403,2.0442,2.0442,2.0627,2.0699,2.0818,2.0834,2.0877,2.09,2.0886,2.0961,2.0967,2.0973,2.0997,2.1005,2.0905,2.0905,2.0905,2.0905,0,1.9857,1.994,1.9987,2.0105,2.0168,2.0246,2.0327,2.0383,2.0421,2.048,2.0585,2.0673,2.0777,2.0809,2.0848,2.0933,2.0931,2.0945,2.0945,2.0977,2.1,2.101,2.0903,2.0903,2.0904,2.0904,0,0,1.9872,2.0026,2.0043,2.0097,2.0214,2.028,2.0361,2.0461,2.0507,2.0592,2.0662,2.0784,2.0798,2.086,2.0907,2.0955,2.1003,2.0964,2.0968,2.0968,2.1102,2.109,2.1099,2.1025,2.1027,2.1028,2.1093,0,1.9929,2.0073,2.0138,2.0254,2.0331,2.0385,2.0456,2.0535,2.0593,2.0668,2.0732,2.0817,2.0829,2.0866,2.0916,2.0986,2.1031,2.0983,2.109,2.1093,2.1063,2.1112,2.11,2.1157,2.1103,2.1105,2.1106,0,2.0015,2.0098,2.0222,2.0329,2.0364,2.0426,2.0523,2.0593,2.0685,2.0724,2.0792,2.0837,2.0925,2.0918,2.104,2.1005,2.1053,2.1094,2.1098,2.111,2.1101,2.1125,2.1177,2.1185,2.1121,2.112,2.1119,0,2.0012,2.0156,2.0248,2.0293,2.0421,2.0463,2.0518,2.0609,2.0665,2.075,2.0788,2.0882,2.0934,2.1007,2.1076,2.1065,2.1191,2.1191,2.1226,2.1224,2.1249,2.1247,2.1309,2.1281,2.1281,2.128,2.128,0,2.0069,2.0142,2.0248,2.0305,2.0389,2.0462,2.0543,2.0603,2.0683,2.0753,2.0806,2.0871,2.0959,2.1035,2.109,2.1182,2.1205,2.1239,2.1253,2.1234,2.1229,2.1266,2.1264,2.1283,2.1282,2.1282,2.1281,0,2.008,2.0154,2.0258,2.037,2.04,2.0457,2.0554,2.0611,2.0671,2.0758,2.0783,2.0877,2.0969,2.1046,2.1167,2.1205,2.13,2.1316,2.1268,2.1275,2.1306,2.1301,2.1394,2.1409,2.137,2.137,2.1371,0,2.0111,2.0168,2.0286,2.0336,2.0391,2.0471,2.0528,2.0603,2.066,2.0769,2.0813,2.0908,2.0989,2.1133,2.1213,2.1306,2.1325,2.1351,2.1339,2.1318,2.1325,2.132,2.1326,2.1351,2.1351,2.1352,2.1352,0,2.0158,2.0192,2.0271,2.0364,2.0431,2.0508,2.0586,2.0624,2.0713,2.0775,2.0869,2.0931,2.1054,2.1149,2.125,2.1308,2.1345,2.1354,2.1367,2.1349,2.1318,2.1334,2.127,2.1352,2.1352,2.1352,2.1352,2.1352,2.018,2.0233,2.0324,2.0411,2.0478,2.055,2.0609,2.0676,2.0755,2.086,2.09,2.0996,2.1086,2.1226,2.1284,2.1361,2.1366,2.1385,2.1389,2.1393,2.139,2.1306,2.138,2.138,2.138,2.138,2.138,0,2.0229,2.029,2.037,2.0477,2.0545,2.0573,2.0661,2.0717,2.08,2.0881,2.0959,2.1066,2.1158,2.1244,2.1341,2.1385,2.1404,2.1408,2.1405,2.1418,2.138,2.1359,2.1391,2.1391,2.1391,2.1391,2.1391,2.1391,2.0263,2.0354,2.0398,2.0523,2.0585,2.0678,2.0726,2.0793,2.0857,2.0975,2.1051,2.1106,2.119,2.1292,2.1377,2.1401,2.1433,2.1432,2.146,2.1423,2.1421,2.1419,2.1399,2.1439,2.1439,2.1491,2.1491,2.1492]},{"header":{"parameterUnit":"m.s-1","parameterCategory":1,"la1":30.2991,"la2":30.254,"lo1":-89.0895,"lo2":-89.0444,"dy":0.0017,"dx":0.0017,"nx":28,"ny":28,"refTime":"2025-07-07T09:00:00:Z","depth":0,"parameterNumber":3,"parameterNumberName":"V-component_of_WINDS"},"data":[0,0,0,0,0,0,0,0,0,0,0,0,0,0,0,0,0,0,0,0,0,0,0,0,0,0,0,0,0,0,0,0,0,0,0,0,0,0,0,0,0,0,0,0,0,0,0,0,0,0,0,0,0,0,0,0,0,0,4.0796,4.0796,0,4.0782,4.0782,4.0782,4.0779,4.0779,4.078,4.078,4.0763,4.0762,4.0762,0,0,0,0,0,0,0,0,0,0,0,0,0,4.0818,4.0818,4.0796,4.0796,4.0796,4.0782,4.0782,4.0782,4.0779,4.0779,4.078,4.078,4.0763,4.0762,4.0762,0,0,0,0,0,0,0,0,0,0,0,0,0,4.0807,4.0817,4.0796,4.0793,4.0793,4.0782,4.0782,4.0782,4.0779,4.0779,4.078,4.078,4.0763,4.0762,4.0761,4.0753,0,0,4.0759,4.0759,0,0,0,0,0,0,0,0,4.0807,4.0806,4.0794,4.0793,4.0793,4.0783,4.0784,4.0772,4.0779,4.0784,4.078,4.078,4.0769,4.0768,4.0765,4.0752,4.0751,4.0759,4.0758,4.0758,4.0758,0,0,0,0,0,0,0,4.0808,4.0806,4.0791,4.0793,4.0793,4.0791,4.079,4.0781,4.0776,4.0784,4.0784,4.0782,4.0769,4.0765,4.0764,4.0751,4.0759,4.0758,4.0758,4.0757,4.073,4.073,0,0,0,0,0,0,4.081,4.0807,4.0791,4.079,4.0801,4.0791,4.0789,4.0786,4.0776,4.0775,4.0782,4.0782,4.0767,4.0765,4.0764,4.0752,4.0758,4.0757,4.0757,4.073,4.073,4.0729,0,0,0,0,0,0,4.081,4.0808,4.0792,4.0799,4.0796,4.079,4.0786,4.0785,4.0782,4.0775,4.0773,4.078,4.0767,4.0765,4.0756,4.0752,4.0757,4.0756,4.073,4.073,4.073,4.073,0,0,0,0,0,0,4.0811,4.0809,4.0806,4.0799,4.0796,4.0785,4.0786,4.0785,4.0781,4.0781,4.0772,4.0771,4.0767,4.0757,4.0755,4.0751,4.0755,4.0731,4.073,4.073,4.073,4.073,4.0729,0,0,0,0,0,4.0812,4.0806,4.0806,4.0804,4.0793,4.0785,4.0783,4.0779,4.0781,4.0777,4.0773,4.0771,4.0753,4.0756,4.0754,4.0749,4.0731,4.073,4.073,4.0731,4.073,4.0729,0,0,0,0,0,0,4.0812,4.0805,4.0805,4.0797,4.0791,4.0784,4.078,4.0779,4.0772,4.0772,4.0767,4.0765,4.0756,4.0752,4.0755,4.074,4.0742,4.0741,4.0743,4.0742,4.0742,4.0743,4.0755,0,0,0,0,0,4.0812,4.0806,4.08,4.0794,4.0791,4.0786,4.0782,4.078,4.0774,4.0771,4.0766,4.0759,4.0752,4.0747,4.074,4.073,4.0727,4.0726,4.0725,4.0725,4.0724,4.0717,4.0716,4.0728,4.0728,4.0728,0,0,4.081,4.0805,4.0802,4.0794,4.0789,4.0783,4.0784,4.0778,4.0773,4.077,4.0761,4.0757,4.0749,4.0739,4.0734,4.0735,4.072,4.0724,4.0724,4.0723,4.0717,4.0716,4.0715,4.0727,4.0727,4.0728,0,0,4.0804,4.08,4.0794,4.079,4.0783,4.078,4.0778,4.0771,4.0769,4.076,4.0758,4.0751,4.0739,4.0733,4.0729,4.072,4.0718,4.0718,4.0715,4.0709,4.0708,4.0707,4.0703,4.0702,4.0717,4.0717,4.0717,0,4.0802,4.0794,4.0791,4.0785,4.0781,4.0779,4.0772,4.0768,4.0759,4.0756,4.0757,4.0741,4.0736,4.0724,4.0722,4.0719,4.0716,4.0719,4.0708,4.0708,4.0707,4.0703,4.0702,4.0717,4.0717,4.0717,4.0717,0,4.0792,4.0786,4.0781,4.0774,4.0769,4.0763,4.0759,4.0754,4.0752,4.0748,4.0739,4.0733,4.0724,4.0721,4.0719,4.0709,4.071,4.071,4.0711,4.0706,4.0702,4.0701,4.0717,4.0717,4.0717,4.0717,0,0,4.0785,4.0776,4.0775,4.0771,4.0764,4.0759,4.0752,4.0744,4.074,4.0734,4.0727,4.0717,4.0717,4.0712,4.0709,4.0704,4.0697,4.0704,4.0704,4.0703,4.0685,4.0684,4.0683,4.0696,4.0695,4.0695,4.0685,0,4.0777,4.0766,4.0763,4.0753,4.0747,4.0745,4.0739,4.0734,4.073,4.0724,4.0719,4.0712,4.0712,4.0709,4.0704,4.0699,4.0693,4.0699,4.0688,4.0688,4.069,4.0681,4.0681,4.0671,4.0684,4.0683,4.0683,0,4.0767,4.0761,4.0751,4.0744,4.0742,4.0736,4.0729,4.0723,4.0716,4.0714,4.0708,4.0706,4.0698,4.07,4.0688,4.0692,4.0688,4.0684,4.0684,4.0682,4.0685,4.0678,4.0669,4.0667,4.0681,4.0681,4.0681,0,4.0762,4.0752,4.0744,4.0741,4.0734,4.073,4.0726,4.072,4.0715,4.0708,4.0705,4.0697,4.0693,4.0686,4.0681,4.0683,4.0669,4.0671,4.0666,4.0666,4.0662,4.0663,4.0651,4.066,4.066,4.066,4.0661,0,4.0754,4.0747,4.0742,4.0738,4.073,4.0727,4.0719,4.0715,4.0709,4.0703,4.0701,4.0694,4.0689,4.0682,4.0678,4.0668,4.0666,4.0663,4.0662,4.0663,4.0663,4.0659,4.0659,4.066,4.066,4.066,4.066,0,4.0747,4.0744,4.0735,4.0729,4.0727,4.0721,4.0715,4.071,4.0706,4.0698,4.0696,4.069,4.0681,4.0676,4.0665,4.0662,4.0651,4.065,4.0654,4.0653,4.0648,4.0648,4.0633,4.063,4.0642,4.0642,4.0642,0,4.0741,4.0737,4.073,4.0726,4.0722,4.0716,4.0712,4.0708,4.0703,4.0695,4.069,4.0682,4.0675,4.0661,4.0655,4.0646,4.0645,4.064,4.0643,4.0644,4.0644,4.0644,4.0643,4.0639,4.0639,4.0639,4.0639,0,4.0732,4.073,4.0725,4.0718,4.0713,4.0708,4.0702,4.0699,4.0694,4.0688,4.068,4.0675,4.0664,4.0655,4.0646,4.0641,4.0638,4.0638,4.0636,4.0637,4.0639,4.0637,4.0651,4.0638,4.0638,4.0638,4.0638,4.0639,4.0725,4.072,4.0715,4.0708,4.0704,4.0699,4.0694,4.0689,4.0683,4.0674,4.0672,4.0663,4.0656,4.0643,4.0638,4.063,4.0631,4.0628,4.0628,4.0627,4.0626,4.0641,4.0629,4.0629,4.0629,4.0629,4.0629,0,4.0715,4.0711,4.0705,4.0698,4.0692,4.0692,4.0686,4.0681,4.0674,4.0668,4.0661,4.0651,4.0642,4.0636,4.0626,4.0621,4.062,4.0619,4.0619,4.0618,4.0627,4.0629,4.062,4.062,4.062,4.062,4.062,4.062,4.0709,4.0701,4.0699,4.0688,4.0684,4.0676,4.0673,4.0667,4.0663,4.0652,4.0645,4.0641,4.0634,4.0625,4.0616,4.0615,4.0611,4.061,4.0608,4.0616,4.0617,4.0618,4.062,4.0609,4.0609,4.0599,4.0599,4.0599]}]]